GW3092 Weather Reports


time (UTC)temp
C
wind
direction
speed
KPH
gust
KPH
rain 1hr
cm
rain 24hr
cm
rain mn
cm
humidity
%
barometer
mb
20260507051539 13 145 1.6 14.5 0.00 1.57 0.00 93 1012.9
20260507050044 13 158 6.4 16.1 0.00 1.57 0.00 93 1012.7
20260507044545 13 146 8.0 12.9 0.00 1.57 0.00 93 1012.5
20260507043041 13 167 8.0 16.1 0.00 1.57 0.00 93 1012.3
20260507041538 13 166 8.0 14.5 0.00 1.57 0.00 93 1012.3
20260507040049 13 175 8.0 11.3 0.00 1.57 0.00 93 1012.1
20260507034547 13 137 6.4 14.5 0.00 1.57 0.00 93 1012.0
20260507033044 13 161 8.0 19.3 0.00 1.57 0.00 93 1011.9
20260507031542 13 183 6.4 14.5 0.00 1.57 0.00 93 1012.1
20260507030047 13 209 4.8 14.5 0.00 1.57 0.00 93 1012.1
20260507024545 13 181 4.8 16.1 0.00 1.57 0.00 93 1012.0
20260507023037 13 183 1.6 14.5 0.00 1.57 0.00 93 1012.0
20260507021619 13 204 3.2 16.1 0.00 1.57 0.00 93 1012.1
20260507020040 13 195 3.2 19.3 0.00 1.57 0.00 92 1012.0
20260507014552 13 168 4.8 19.3 0.00 1.57 0.00 92 1012.1
20260507013047 13 330 4.8 22.5 0.00 1.57 0.00 92 1012.0
20260507011545 13 247 6.4 20.9 0.00 1.57 0.00 92 1012.0
20260507010050 13 154 4.8 20.9 0.00 1.57 0.00 92 1012.1
20260507004543 13 268 4.8 25.7 0.00 1.57 0.00 92 1011.9
20260507003039 13 165 4.8 17.7 0.00 1.57 0.00 92 1012.1
20260507001550 13 150 4.8 17.7 0.00 1.57 0.00 91 1011.9
20260507000045 13 146 8.0 20.9 0.00 1.57 0.00 92 1012.1
20260506234544 13 168 11.3 24.1 0.00 1.57 0.00 91 1012.3
20260506233044 13 142 11.3 22.5 0.00 1.57 0.00 90 1012.4
20260506231542 13 166 11.3 22.5 0.00 1.57 0.00 91 1012.5
20260506230040 13 207 14.5 22.5 0.00 1.57 0.00 91 1012.5
20260506224538 13 187 9.7 16.1 0.00 1.57 0.00 91 1012.6
20260506223046 13 145 6.4 14.5 0.00 1.57 0.00 91 1012.8
20260506221545 13 149 4.8 12.9 0.00 1.57 0.00 91 1012.6
20260506220044 13 139 6.4 14.5 0.00 1.57 0.00 91 1012.4
20260506214545 12 168 9.7 19.3 0.00 1.57 1.57 90 1012.4
20260506213040 12 208 11.3 19.3 0.00 1.57 1.57 90 1012.1
20260506211538 12 162 9.7 16.1 0.00 1.57 1.57 90 1012.3
20260506210050 12 222 9.7 17.7 0.00 1.57 1.57 91 1012.2
20260506204544 13 153 8.0 20.9 0.00 1.57 1.57 91 1012.3
20260506203050 13 170 8.0 17.7 0.00 1.57 1.57 91 1012.2
20260506201600 13 203 9.7 29.0 0.00 1.57 1.57 91 1012.1
20260506200048 13 164 9.7 29.0 0.00 1.57 1.57 91 1012.1
20260506194548 13 185 9.7 22.5 0.00 1.57 1.57 92 1012.0
20260506193050 13 190 6.4 32.2 0.00 1.57 1.57 92 1011.8
20260506191544 13 191 11.3 27.4 0.00 1.57 1.57 92 1011.5
20260506190043 14 157 11.3 33.8 0.00 1.57 1.57 92 1011.2
20260506184549 14 137 11.3 24.1 0.00 1.57 1.57 92 1011.0
20260506183040 14 189 6.4 27.4 0.03 1.57 1.57 92 1011.1
20260506181540 14 183 6.4 24.1 0.05 1.57 1.57 92 1011.2
20260506180045 14 177 8.0 22.5 0.08 1.57 1.57 92 1011.1
20260506174542 14 123 8.0 19.3 0.13 1.57 1.57 92 1011.0
20260506173059 15 210 8.0 22.5 0.10 1.55 1.55 91 1010.8
20260506171551 15 148 9.7 35.4 0.08 1.52 1.52 91 1011.0
20260506170040 15 237 22.5 37.0 0.03 1.47 1.47 89 1010.6
20260506164544 15 155 14.5 32.2 0.00 1.42 1.42 88 1009.7
20260506163059 16 176 8.0 29.0 0.00 1.42 1.42 87 1010.4
20260506161545 16 145 11.3 22.5 0.00 1.42 1.42 87 1010.6
20260506160043 16 236 8.0 22.5 0.00 1.42 1.42 87 1010.6
20260506154550 17 184 12.9 32.2 0.00 1.42 1.42 86 1010.6
20260506153041 16 137 12.9 20.9 0.00 1.42 1.42 89 1010.9
20260506151544 16 214 8.0 22.5 0.00 1.42 1.42 91 1011.1
20260506150044 16 188 6.4 20.9 0.00 1.42 1.42 92 1011.3
20260506144545 16 183 8.0 20.9 0.00 1.50 1.42 92 1011.4
20260506143042 15 214 3.2 14.5 0.00 1.50 1.42 93 1011.4
20260506141542 15 150 8.0 16.1 0.00 1.50 1.42 93 1011.5
20260506140047 15 173 8.0 14.5 0.00 1.50 1.42 93 1011.6
20260506134537 15 135 6.4 14.5 0.00 1.50 1.42 93 1011.8
20260506133045 14 0 6.4 11.3 0.00 1.50 1.42 93 1011.8
20260506131544 14 143 4.8 11.3 0.00 1.50 1.42 93 1012.0
20260506130043 14 167 4.8 12.9 0.03 1.50 1.42 93 1012.2
20260506124542 13 177 3.2 14.5 0.03 1.50 1.42 93 1012.2
20260506123038 13 153 8.0 24.1 0.03 1.50 1.42 93 1012.1
20260506121538 13 236 22.5 40.2 0.00 1.50 1.40 93 1012.3
20260506120050 13 43 8.0 25.7 0.00 1.47 1.40 93 1012.1
20260506114550 13 317 8.0 25.7 0.00 1.50 1.40 93 1012.0
20260506113043 13 191 9.7 22.5 0.00 1.50 1.40 93 1012.1
20260506111543 13 142 6.4 20.9 0.00 1.50 1.40 93 1012.3
20260506110038 13 128 8.0 33.8 0.05 1.50 1.40 93 1012.3
20260506104547 13 131 12.9 35.4 0.13 1.52 1.40 93 1012.3
20260506103044 13 146 9.7 27.4 0.18 1.52 1.40 94 1012.4
20260506101544 13 205 11.3 27.4 0.28 1.52 1.40 94 1012.7
20260506100043 13 131 14.5 25.7 0.30 1.47 1.32 94 1012.7
20260506094546 12 143 9.7 32.2 0.30 1.40 1.24 94 1012.7
20260506093105 12 207 12.9 30.6 0.36 1.32 1.19 94 1012.8
20260506091547 12 206 9.7 24.1 0.36 1.22 1.09 94 1012.6
20260506090051 13 172 14.5 30.6 0.36 1.14 1.02 94 1012.5
20260506084544 13 158 14.5 25.7 0.36 1.04 0.91 94 1012.4
20260506083044 13 150 14.5 22.5 0.36 0.97 0.84 93 1012.6
20260506081540 13 199 4.8 19.3 0.36 0.86 0.74 93 1012.7
20260506073044 13 224 6.4 22.5 0.43 0.58 0.46 93 1012.5
20260506071544 13 192 3.2 19.3 0.36 0.51 0.36 92 1012.4
20260506061552 13 199 9.7 22.5 0.00 0.13 0.00 90 1012.4